,,Stat6,,Stat2,,Stat8,,Stat9,,Stat10,,Wind1,,Wind1,
time,status,PA1M_AVG,status,PR1M_SUM,status,RH1M_AVG,status,SR1M_AVG,status,TA1M_AVG,status,W1dAve1m,status,W1sAve1m,
2005-12-28, 00:00:01,VALID,919.671,VALID,0,VALID,100,VALID,0.0679233,VALID,19.1733,VALID,29,VALID,0.500391,
2005-12-28, 00:01:01,VALID,919.665,VALID,0,VALID,100,VALID,0.0679233,VALID,19.1574,VALID,28,VALID,0.506624,
2005-12-28, 00:02:00,VALID,919.659,VALID,0,VALID,100,VALID,0.0679233,VALID,19.1607,VALID,28,VALID,0.517149,
2005-12-28, 00:03:00,VALID,919.646,VALID,0,VALID,100,VALID,0.0509425,VALID,19.1607,VALID,32,VALID,0.350291,
2005-12-28, 00:04:00,VALID,919.642,VALID,0,VALID,100,VALID,0.0679233,VALID,19.184,VALID,33,VALID,0.394354,
2005-12-28, 00:05:00,VALID,919.642,VALID,0,VALID,100,VALID,0.0509425,VALID,19.1865,VALID,33,VALID,0.44122,
2005-12-28, 00:06:00,VALID,919.644,VALID,0,VALID,100,VALID,0.0849042,VALID,19.2163,VALID,33,VALID,0.263368,
2005-12-28, 00:07:00,VALID,919.634,VALID,0,VALID,100,VALID,0.0679233,VALID,19.232,VALID,33,VALID,0.0284598,
2005-12-28, 00:08:00,VALID,919.652,VALID,0,VALID,100,VALID,0.0339617,VALID,19.2352,VALID,33,VALID,0.00142045,
2005-12-28, 00:09:01,VALID,919.648,VALID,0,VALID,100,VALID,0.0679233,VALID,19.2521,VALID,33,VALID,0,
2005-12-28, 00:10:00,VALID,919.646,VALID,0,VALID,100,VALID,0.0339617,VALID,19.2385,VALID,33,VALID,0.0327381,
2005-12-28, 00:11:01,VALID,919.655,VALID,0,VALID,100,VALID,0.0169808,VALID,19.2295,VALID,156,VALID,0.479167,
2005-12-28, 00:12:01,VALID,919.652,VALID,0,VALID,100,VALID,0,VALID,19.2096,VALID,179,VALID,0.81622,
2005-12-28, 00:13:01,VALID,919.648,VALID,0,VALID,100,VALID,0.0679233,VALID,19.1835,VALID,178,VALID,1.18874,
2005-12-28, 00:14:00,VALID,919.653,VALID,0,VALID,100,VALID,0.0509425,VALID,19.1544,VALID,175,VALID,0.928125,
2005-12-28, 00:15:01,VALID,919.64,VALID,0,VALID,100,VALID,0.0169808,VALID,19.1156,VALID,169,VALID,1.00345,
2005-12-28, 00:16:00,VALID,919.638,VALID,0,VALID,100,VALID,0.0509425,VALID,19.0933,VALID,169,VALID,1.10918,
2005-12-28, 00:17:00,VALID,919.644,VALID,0,VALID,100,VALID,0.0339617,VALID,19.0907,VALID,179,VALID,0.501302,
2005-12-28, 00:18:01,VALID,919.636,VALID,0,VALID,100,VALID,0.0679233,VALID,19.0706,VALID,181,VALID,0.29173,
2005-12-28, 00:19:00,VALID,919.616,VALID,0,VALID,100,VALID,0.0849042,VALID,19.0577,VALID,179,VALID,0.720881,
2005-12-28, 00:20:00,VALID,919.605,VALID,0,VALID,100,VALID,0.101885,VALID,19.0577,VALID,181,VALID,0.414063,
2005-12-28, 00:21:00,VALID,919.606,VALID,0,VALID,100,VALID,0.0509425,VALID,19.0453,VALID,181,VALID,0.382102,
2005-12-28, 00:22:00,VALID,919.586,VALID,0,VALID,100,VALID,0.0169808,VALID,19.0286,VALID,180,VALID,0.442645,
2005-12-28, 00:23:00,VALID,919.59,VALID,0,VALID,100,VALID,0.0679233,VALID,19.0284,VALID,173,VALID,0.780134,
2005-12-28, 00:24:00,VALID,919.595,VALID,0,VALID,100,VALID,0.0849042,VALID,19.0483,VALID,173,VALID,0.687153,
2005-12-28, 00:25:00,VALID,919.605,VALID,0,VALID,100,VALID,0.0679233,VALID,19.0448,VALID,173,VALID,0.408668,
2005-12-28, 00:26:01,VALID,919.598,VALID,0,VALID,100,VALID,0.0679233,VALID,19.0676,VALID,174,VALID,0.319949,
2005-12-28, 00:27:00,VALID,919.602,VALID,0,VALID,100,VALID,0.0509425,VALID,19.0836,VALID,174,VALID,0.0837573,
2005-12-28, 00:28:00,VALID,919.605,VALID,0,VALID,100,VALID,0.0339617,VALID,19.103,VALID,174,VALID,0.077381,
2005-12-28, 00:29:00,VALID,919.602,VALID,0,VALID,100,VALID,0.0679233,VALID,19.1203,VALID,174,VALID,0,
2005-12-28, 00:30:01,VALID,919.588,VALID,0,VALID,100,VALID,0.0679233,VALID,19.1099,VALID,174,VALID,0,
2005-12-28, 00:31:01,VALID,919.588,VALID,0,VALID,100,VALID,0.0849042,VALID,19.0868,VALID,144,VALID,0.170873,
2005-12-28, 00:32:00,VALID,919.579,VALID,0,VALID,100,VALID,0.0679233,VALID,19.0383,VALID,49,VALID,1.23674,
2005-12-28, 00:33:01,VALID,919.567,VALID,0,VALID,100,VALID,0.0679233,VALID,18.9898,VALID,47,VALID,1.03311,
2005-12-28, 00:34:01,VALID,919.541,VALID,0,VALID,100,VALID,0.0679233,VALID,18.954,VALID,48,VALID,0.912847,
2005-12-28, 00:35:01,VALID,919.524,VALID,0,VALID,100,VALID,0.0849042,VALID,18.9347,VALID,61,VALID,0.675145,
2005-12-28, 00:36:00,VALID,919.501,VALID,0,VALID,100,VALID,0.101885,VALID,18.9321,VALID,87,VALID,0.744474,
2005-12-28, 00:37:00,VALID,919.486,VALID,0,VALID,100,VALID,0.101885,VALID,18.909,VALID,96,VALID,0.847747,
2005-12-28, 00:38:01,VALID,919.458,VALID,0,VALID,100,VALID,0.0679233,VALID,18.9026,VALID,107,VALID,0.874822,
2005-12-28, 00:39:00,VALID,919.446,VALID,0,VALID,100,VALID,0.101885,VALID,18.8864,VALID,101,VALID,0.808866,
2005-12-28, 00:40:00,VALID,919.43,VALID,0,VALID,100,VALID,0.0849042,VALID,18.8797,VALID,87,VALID,0.840909,
2005-12-28, 00:41:00,VALID,919.419,VALID,0,VALID,100,VALID,0.0849042,VALID,18.8832,VALID,88,VALID,0.59375,
2005-12-28, 00:42:01,VALID,919.414,VALID,0,VALID,100,VALID,0.101885,VALID,18.8767,VALID,99,VALID,0.648615,
2005-12-28, 00:43:00,VALID,919.416,VALID,0,VALID,100,VALID,0.0849042,VALID,18.8869,VALID,102,VALID,0.614099,
2005-12-28, 00:44:01,VALID,919.396,VALID,0,VALID,100,VALID,0.0849042,VALID,18.8899,VALID,102,VALID,0.894354,
2005-12-28, 00:45:00,VALID,919.394,VALID,0,VALID,100,VALID,0.0849042,VALID,18.8968,VALID,104,VALID,0.656064,
2005-12-28, 00:46:01,VALID,919.377,VALID,0,VALID,100,VALID,0.0509425,VALID,18.8934,VALID,104,VALID,0.379179,
2005-12-28, 00:47:01,VALID,919.383,VALID,0,VALID,100,VALID,0.0679233,VALID,18.8963,VALID,104,VALID,0.397049,
2005-12-28, 00:48:00,VALID,919.357,VALID,0,VALID,100,VALID,0.0679233,VALID,18.8832,VALID,104,VALID,0.387607,
2005-12-28, 00:49:00,VALID,919.352,VALID,0,VALID,100,VALID,0.0509425,VALID,18.8938,VALID,106,VALID,0.444754,
2005-12-28, 00:50:01,VALID,919.352,VALID,0,VALID,100,VALID,0.0849042,VALID,18.877,VALID,83,VALID,0.493676,
2005-12-28, 00:51:00,VALID,919.323,VALID,0,VALID,100,VALID,0.0509425,VALID,18.9005,VALID,102,VALID,0.838663,
2005-12-28, 00:52:00,VALID,919.283,VALID,0,VALID,100,VALID,0.0509425,VALID,18.8869,VALID,108,VALID,1.14026,
2005-12-28, 00:53:00,VALID,919.257,VALID,0,VALID,100,VALID,0.0509425,VALID,18.8929,VALID,105,VALID,0.984189,
2005-12-28, 00:54:01,VALID,919.232,VALID,0,VALID,100,VALID,0.0339617,VALID,18.9068,VALID,101,VALID,1.25852,
2005-12-28, 00:55:01,VALID,919.228,VALID,0,VALID,100,VALID,0.0509425,VALID,18.913,VALID,102,VALID,1.39602,
2005-12-28, 00:56:00,VALID,919.232,VALID,0,VALID,100,VALID,0.0849042,VALID,18.9224,VALID,99,VALID,0.713728,
2005-12-28, 00:57:01,VALID,919.232,VALID,0,VALID,100,VALID,0.0509425,VALID,18.9254,VALID,103,VALID,0.673874,
2005-12-28, 00:58:01,VALID,919.253,VALID,0,VALID,100,VALID,0.0679233,VALID,18.9446,VALID,103,VALID,0.233803,
2005-12-28, 00:59:00,VALID,919.266,VALID,0,VALID,100,VALID,0.101885,VALID,18.9578,VALID,107,VALID,0.53452,
2005-12-28, 01:00:01,VALID,919.265,VALID,0,VALID,100,VALID,0.0849042,VALID,18.9675,VALID,111,VALID,0.41495,
2005-12-28, 01:01:01,VALID,919.262,VALID,0,VALID,100,VALID,0.0679233,VALID,18.9809,VALID,111,VALID,0.507068,
2005-12-28, 01:02:01,VALID,919.262,VALID,0,VALID,100,VALID,0.0679233,VALID,18.9836,VALID,106,VALID,0.761896,
2005-12-28, 01:03:01,VALID,919.237,VALID,0,VALID,100,VALID,0.0679233,VALID,18.9965,VALID,113,VALID,0.872796,
2005-12-28, 01:04:00,VALID,919.217,VALID,0,VALID,100,VALID,0.101885,VALID,19.0062,VALID,116,VALID,0.88244,
2005-12-28, 01:05:01,VALID,919.199,VALID,0,VALID,100,VALID,0.0339617,VALID,19.0157,VALID,125,VALID,0.523438,
2005-12-28, 01:06:00,VALID,919.171,VALID,0,VALID,100,VALID,0.0679233,VALID,19.0293,VALID,104,VALID,0.402253,
2005-12-28, 01:07:01,VALID,919.151,VALID,0,VALID,100,VALID,0.0679233,VALID,19.0483,VALID,122,VALID,0.844815,
2005-12-28, 01:08:00,VALID,919.145,VALID,0,VALID,100,VALID,0.101885,VALID,19.0448,VALID,110,VALID,0.766183,
2005-12-28, 01:09:01,VALID,919.146,VALID,0,VALID,100,VALID,0.0849042,VALID,19.0415,VALID,117,VALID,0.390447,
2005-12-28, 01:10:01,VALID,919.147,VALID,0,VALID,100,VALID,0.101885,VALID,19.0639,VALID,114,VALID,0.511624,
2005-12-28, 01:11:01,VALID,919.138,VALID,0,VALID,100,VALID,0.0509425,VALID,19.0644,VALID,131,VALID,0.422061,
2005-12-28, 01:12:01,VALID,919.144,VALID,0,VALID,100,VALID,0.0849042,VALID,19.0607,VALID,138,VALID,0.64577,
2005-12-28, 01:13:01,VALID,919.128,VALID,0,VALID,100,VALID,0.0509425,VALID,19.0547,VALID,110,VALID,0.441964,
2005-12-28, 01:14:01,VALID,919.128,VALID,0,VALID,100,VALID,0.0679233,VALID,19.0547,VALID,139,VALID,0.807776,
2005-12-28, 01:15:01,VALID,919.102,VALID,0,VALID,100,VALID,0.0849042,VALID,19.0579,VALID,131,VALID,0.59157,
2005-12-28, 01:16:01,VALID,919.083,VALID,0,VALID,100,VALID,0.0339617,VALID,19.0547,VALID,134,VALID,0.519717,
2005-12-28, 01:17:01,VALID,919.047,VALID,0,VALID,100,VALID,0.0679233,VALID,19.0515,VALID,132,VALID,0.636242,
2005-12-28, 01:18:01,VALID,919.021,VALID,0,VALID,100,VALID,0.0339617,VALID,19.048,VALID,134,VALID,0.607617,
2005-12-28, 01:19:01,VALID,918.989,VALID,0,VALID,100,VALID,0.0679233,VALID,19.0575,VALID,138,VALID,0.956854,
2005-12-28, 01:20:01,VALID,918.958,VALID,0,VALID,100,VALID,0.0509425,VALID,19.0448,VALID,137,VALID,0.68045,
2005-12-28, 01:21:01,VALID,918.94,VALID,0,VALID,100,VALID,0.0509425,VALID,19.0483,VALID,138,VALID,0.613735,
2005-12-28, 01:22:01,VALID,918.913,VALID,0,VALID,100,VALID,0.0339617,VALID,19.0411,VALID,147,VALID,0.68532,
2005-12-28, 01:23:01,VALID,918.888,VALID,0,VALID,100,VALID,0,VALID,19.0254,VALID,141,VALID,0.623183,
2005-12-28, 01:24:01,VALID,918.883,VALID,0,VALID,100,VALID,0.0339617,VALID,19.0224,VALID,134,VALID,0.78418,
2005-12-28, 01:25:01,VALID,918.874,VALID,0,VALID,100,VALID,0.0169808,VALID,19.0222,VALID,102,VALID,0.597098,
2005-12-28, 01:26:01,VALID,918.866,VALID,0,VALID,100,VALID,0.0169808,VALID,19.0192,VALID,142,VALID,0.564174,
2005-12-28, 01:27:01,VALID,918.862,VALID,0,VALID,100,VALID,0,VALID,19.0229,VALID,134,VALID,0.523633,
2005-12-28, 01:28:01,VALID,918.857,VALID,0,VALID,100,VALID,0.0169808,VALID,19.0095,VALID,130,VALID,0.37862,
2005-12-28, 01:29:01,VALID,918.851,VALID,0,VALID,100,VALID,0.0339617,VALID,19.0125,VALID,130,VALID,0.250182,
2005-12-28, 01:30:01,VALID,918.841,VALID,0,VALID,100,VALID,0.0169808,VALID,19.0226,VALID,130,VALID,0.285429,
2005-12-28, 01:31:01,VALID,918.824,VALID,0,VALID,100,VALID,0.0169808,VALID,19.0222,VALID,131,VALID,0.371185,
2005-12-28, 01:32:01,VALID,918.803,VALID,0,VALID,100,VALID,0.0509425,VALID,19.0222,VALID,131,VALID,0.0752668,
2005-12-28, 01:33:01,VALID,918.78,VALID,0,VALID,100,VALID,0,VALID,19.0289,VALID,131,VALID,0.122768,
2005-12-28, 01:34:01,VALID,918.755,VALID,0,VALID,100,VALID,0.0339617,VALID,19.0289,VALID,131,VALID,0.298921,
2005-12-28, 01:35:01,VALID,918.729,VALID,0,VALID,100,VALID,0.0169808,VALID,19.0162,VALID,131,VALID,0.118331,
2005-12-28, 01:36:01,VALID,918.701,VALID,0,VALID,100,VALID,0.0169808,VALID,19.0222,VALID,131,VALID,0.295686,
2005-12-28, 01:37:01,VALID,918.68,VALID,0,VALID,100,VALID,0.0509425,VALID,19.0189,VALID,131,VALID,0.285764,
2005-12-28, 01:38:01,VALID,918.655,VALID,0,VALID,100,VALID,0.0169808,VALID,19.0192,VALID,131,VALID,0.0762195,
2005-12-28, 01:39:01,VALID,918.631,VALID,0,VALID,100,VALID,0.0339617,VALID,19.009,VALID,131,VALID,0.130327,
2005-12-28, 01:40:00,VALID,918.604,VALID,0,VALID,100,VALID,0.0339617,VALID,19.0157,VALID,131,VALID,0,
2005-12-28, 01:41:00,VALID,918.573,VALID,0,VALID,100,VALID,0.0509425,VALID,19.0189,VALID,131,VALID,0,
2005-12-28, 01:42:00,VALID,918.552,VALID,0,VALID,100,VALID,0.101885,VALID,19.0194,VALID,131,VALID,0,
2005-12-28, 01:43:00,VALID,918.522,VALID,0,VALID,100,VALID,0.101885,VALID,19.0157,VALID,131,VALID,0,
2005-12-28, 01:44:00,VALID,918.5,VALID,0,VALID,100,VALID,0.0849042,VALID,19.0249,VALID,131,VALID,0,
2005-12-28, 01:45:00,VALID,918.473,VALID,0,VALID,100,VALID,0.118866,VALID,19.0348,VALID,131,VALID,0,
2005-12-28, 01:46:00,VALID,918.439,VALID,0,VALID,100,VALID,0.118866,VALID,19.0383,VALID,131,VALID,0,
2005-12-28, 01:47:00,VALID,918.421,VALID,0,VALID,100,VALID,0.0849042,VALID,19.0383,VALID,131,VALID,0.26456,
2005-12-28, 01:48:00,VALID,918.406,VALID,0,VALID,100,VALID,0.101885,VALID,19.0383,VALID,131,VALID,0.448864,
2005-12-28, 01:49:00,VALID,918.381,VALID,0,VALID,100,VALID,0.0849042,VALID,19.0351,VALID,131,VALID,0.299361,
2005-12-28, 01:50:00,VALID,918.367,VALID,0,VALID,100,VALID,0.0679233,VALID,19.0284,VALID,131,VALID,0.0428735,
2005-12-28, 01:51:00,VALID,918.333,VALID,0,VALID,100,VALID,0.101885,VALID,19.0222,VALID,135,VALID,0.814499,
2005-12-28, 01:52:00,VALID,918.308,VALID,0,VALID,100,VALID,0.118866,VALID,19.0058,VALID,153,VALID,0.87571,
2005-12-28, 01:53:00,VALID,918.283,VALID,0,VALID,100,VALID,0.101885,VALID,19.006,VALID,159,VALID,0.768924,
2005-12-28, 01:54:00,VALID,918.249,VALID,0,VALID,100,VALID,0.0849042,VALID,19,VALID,159,VALID,0.282203,
2005-12-28, 01:55:00,VALID,918.236,VALID,0,VALID,100,VALID,0.0679233,VALID,18.9901,VALID,163,VALID,0.0821221,
2005-12-28, 01:56:00,VALID,918.21,VALID,0,VALID,100,VALID,0.0849042,VALID,18.9928,VALID,181,VALID,0.228743,
2005-12-28, 01:57:00,VALID,918.2,VALID,0,VALID,100,VALID,0.0339617,VALID,18.9898,VALID,181,VALID,0.193788,
2005-12-28, 01:58:00,VALID,918.185,VALID,0,VALID,100,VALID,0.0849042,VALID,19.0099,VALID,181,VALID,0.141304,
2005-12-28, 01:59:00,VALID,918.153,VALID,0,VALID,100,VALID,0.0339617,VALID,19.0132,VALID,181,VALID,0,
2005-12-28, 02:00:00,VALID,918.151,VALID,0,VALID,100,VALID,0.0169808,VALID,19.0259,VALID,181,VALID,0,
2005-12-28, 02:01:00,VALID,918.126,VALID,0,VALID,100,VALID,0.0169808,VALID,19.0393,VALID,181,VALID,0,
2005-12-28, 02:02:00,VALID,918.104,VALID,0,VALID,100,VALID,0.0339617,VALID,19.0319,VALID,181,VALID,0,
2005-12-28, 02:03:00,VALID,918.101,VALID,0,VALID,100,VALID,0.0169808,VALID,19.039,VALID,181,VALID,0,
2005-12-28, 02:04:00,VALID,918.08,VALID,0,VALID,100,VALID,0.0339617,VALID,19.048,VALID,181,VALID,0,
2005-12-28, 02:05:00,VALID,918.055,VALID,0,VALID,100,VALID,0.0509425,VALID,19.0351,VALID,181,VALID,0,
2005-12-28, 02:06:00,VALID,918.041,VALID,0,VALID,100,VALID,0.0339617,VALID,19.0356,VALID,181,VALID,0,
2005-12-28, 02:07:00,VALID,918.023,VALID,0,VALID,100,VALID,0.0849042,VALID,19.0159,VALID,181,VALID,0.16282,
2005-12-28, 02:08:00,VALID,918.01,VALID,0,VALID,100,VALID,0.0339617,VALID,18.9799,VALID,181,VALID,0.510538,
2005-12-28, 02:09:00,VALID,917.997,VALID,0,VALID,100,VALID,0.0679233,VALID,18.9806,VALID,142,VALID,0.536644,
2005-12-28, 02:10:00,VALID,917.969,VALID,0,VALID,100,VALID,0.0509425,VALID,18.9707,VALID,66,VALID,0.662388,
2005-12-28, 02:11:00,VALID,917.94,VALID,0,VALID,100,VALID,0.0339617,VALID,18.9453,VALID,66,VALID,0.617365,
2005-12-28, 02:12:00,VALID,917.926,VALID,0,VALID,100,VALID,0.0509425,VALID,18.9291,VALID,66,VALID,0.685014,
2005-12-28, 02:13:00,VALID,917.917,VALID,0,VALID,100,VALID,0.0339617,VALID,18.91,VALID,66,VALID,0.690662,
2005-12-28, 02:14:00,VALID,917.906,VALID,0,VALID,100,VALID,0.0169808,VALID,18.8834,VALID,71,VALID,0.613948,
2005-12-28, 02:15:00,VALID,917.908,VALID,0,VALID,100,VALID,0.0169808,VALID,18.8777,VALID,74,VALID,0.476215,
2005-12-28, 02:16:00,VALID,917.888,VALID,0,VALID,100,VALID,0,VALID,18.8578,VALID,74,VALID,0.530107,
2005-12-28, 02:17:00,VALID,917.879,VALID,0,VALID,100,VALID,0.0339617,VALID,18.8319,VALID,76,VALID,0.550509,
2005-12-28, 02:18:00,VALID,917.869,VALID,0,VALID,100,VALID,0.0339617,VALID,18.819,VALID,92,VALID,0.479911,
2005-12-28, 02:19:00,VALID,917.838,VALID,0,VALID,100,VALID,0,VALID,18.7992,VALID,94,VALID,0.558117,
2005-12-28, 02:20:00,VALID,917.825,VALID,0,VALID,100,VALID,0.0339617,VALID,18.8156,VALID,110,VALID,0.321057,
2005-12-28, 02:21:00,VALID,917.802,VALID,0,VALID,100,VALID,0.0339617,VALID,18.8225,VALID,120,VALID,0.15407,
2005-12-28, 02:22:00,VALID,917.797,VALID,0,VALID,100,VALID,0.0509425,VALID,18.8352,VALID,125,VALID,0.321987,
2005-12-28, 02:23:00,VALID,917.774,VALID,0,VALID,100,VALID,0.0339617,VALID,18.8481,VALID,121,VALID,0.551067,
2005-12-28, 02:24:00,VALID,917.748,VALID,0,VALID,100,VALID,0.0339617,VALID,18.8546,VALID,124,VALID,0.319196,
2005-12-28, 02:25:00,VALID,917.726,VALID,0,VALID,100,VALID,0.0509425,VALID,18.8409,VALID,92,VALID,0.738009,
2005-12-28, 02:26:00,VALID,917.712,VALID,0,VALID,100,VALID,0.0169808,VALID,18.8546,VALID,81,VALID,0.739644,
2005-12-28, 02:27:00,VALID,917.704,VALID,0,VALID,100,VALID,0.0849042,VALID,18.8409,VALID,74,VALID,0.866587,
2005-12-28, 02:28:00,VALID,917.686,VALID,0,VALID,100,VALID,0.101885,VALID,18.8474,VALID,69,VALID,0.743862,
2005-12-28, 02:29:00,VALID,917.688,VALID,0,VALID,100,VALID,0.0339617,VALID,18.8345,VALID,69,VALID,0.683933,
2005-12-28, 02:30:00,VALID,917.7,VALID,0,VALID,100,VALID,0.0679233,VALID,18.8345,VALID,64,VALID,0.624442,
2005-12-28, 02:31:00,VALID,917.712,VALID,0,VALID,100,VALID,0.0339617,VALID,18.8185,VALID,60,VALID,0.531064,
2005-12-28, 02:32:00,VALID,917.708,VALID,0,VALID,100,VALID,0.0169808,VALID,18.8181,VALID,61,VALID,0.329144,
2005-12-28, 02:33:00,VALID,917.707,VALID,0,VALID,100,VALID,0.0849042,VALID,18.8349,VALID,61,VALID,0.209077,
2005-12-28, 02:34:00,VALID,917.704,VALID,0,VALID,100,VALID,0.0169808,VALID,18.8352,VALID,42,VALID,0.348028,
2005-12-28, 02:35:00,VALID,917.703,VALID,0,VALID,100,VALID,0.0339617,VALID,18.8347,VALID,39,VALID,0.465701,
2005-12-28, 02:36:00,VALID,917.697,VALID,0,VALID,100,VALID,0.0339617,VALID,18.825,VALID,39,VALID,0.335175,
2005-12-28, 02:37:00,VALID,917.694,VALID,0,VALID,100,VALID,0.0339617,VALID,18.8386,VALID,39,VALID,0.549893,
2005-12-28, 02:38:00,VALID,917.697,VALID,0,VALID,100,VALID,0.0169808,VALID,18.8322,VALID,39,VALID,0.535352,
2005-12-28, 02:39:00,VALID,917.689,VALID,0,VALID,100,VALID,0.0509425,VALID,18.8255,VALID,39,VALID,0.570513,
2005-12-28, 02:40:00,VALID,917.677,VALID,0,VALID,100,VALID,0.0679233,VALID,18.8153,VALID,38,VALID,0.653773,
2005-12-28, 02:41:00,VALID,917.684,VALID,0,VALID,100,VALID,0.0339617,VALID,18.8026,VALID,30,VALID,0.83817,
2005-12-28, 02:42:00,VALID,917.665,VALID,0,VALID,100,VALID,0.0509425,VALID,18.7865,VALID,30,VALID,0.767987,
2005-12-28, 02:43:00,VALID,917.65,VALID,0,VALID,100,VALID,0.0849042,VALID,18.7899,VALID,30,VALID,0.892361,
2005-12-28, 02:44:00,VALID,917.622,VALID,0,VALID,100,VALID,0.0679233,VALID,18.7837,VALID,36,VALID,0.988381,
2005-12-28, 02:45:00,VALID,917.606,VALID,0,VALID,100,VALID,0.0509425,VALID,18.7837,VALID,42,VALID,1.20122,
2005-12-28, 02:46:00,VALID,917.596,VALID,0,VALID,100,VALID,0.0849042,VALID,18.7701,VALID,43,VALID,1.0463,
2005-12-28, 02:47:00,VALID,917.589,VALID,0,VALID,100,VALID,0.0509425,VALID,18.7865,VALID,47,VALID,1.14005,
2005-12-28, 02:48:00,VALID,917.597,VALID,0,VALID,100,VALID,0.101885,VALID,18.7798,VALID,52,VALID,0.808398,
2005-12-28, 02:49:00,VALID,917.618,VALID,0,VALID,100,VALID,0.0849042,VALID,18.7892,VALID,44,VALID,0.774368,
2005-12-28, 02:50:00,VALID,917.645,VALID,0,VALID,100,VALID,0.186789,VALID,18.7915,VALID,37,VALID,0.786882,
2005-12-28, 02:51:00,VALID,917.667,VALID,0,VALID,100,VALID,0.186789,VALID,18.7917,VALID,36,VALID,0.692522,
2005-12-28, 02:52:00,VALID,917.694,VALID,0,VALID,100,VALID,0.152827,VALID,18.8114,VALID,33,VALID,0.597834,
2005-12-28, 02:53:00,VALID,917.711,VALID,0,VALID,100,VALID,0.186789,VALID,18.7945,VALID,32,VALID,0.60973,
2005-12-28, 02:54:00,VALID,917.704,VALID,0,VALID,100,VALID,0.186789,VALID,18.8044,VALID,30,VALID,0.544643,
2005-12-28, 02:55:00,VALID,917.674,VALID,0,VALID,100,VALID,0.169808,VALID,18.8338,VALID,25,VALID,0.247713,
2005-12-28, 02:56:00,VALID,917.651,VALID,0,VALID,100,VALID,0.186789,VALID,18.8502,VALID,25,VALID,0.534226,
2005-12-28, 02:57:00,VALID,917.62,VALID,0,VALID,100,VALID,0.169808,VALID,18.8464,VALID,26,VALID,0.532617,
2005-12-28, 02:58:00,VALID,917.599,VALID,0,VALID,100,VALID,0.118866,VALID,18.8636,VALID,33,VALID,0.468936,
2005-12-28, 02:59:00,VALID,917.586,VALID,0,VALID,100,VALID,0.118866,VALID,18.8372,VALID,35,VALID,0.59707,
2005-12-28, 03:00:00,VALID,917.568,VALID,0,VALID,100,VALID,0.118866,VALID,18.8372,VALID,36,VALID,0.352307,
2005-12-28, 03:01:00,VALID,917.561,VALID,0,VALID,100,VALID,0.169808,VALID,18.8379,VALID,36,VALID,0.453488,
2005-12-28, 03:02:00,VALID,917.534,VALID,0,VALID,100,VALID,0.152827,VALID,18.8407,VALID,37,VALID,0.503551,
2005-12-28, 03:03:00,VALID,917.507,VALID,0,VALID,100,VALID,0.186789,VALID,18.8273,VALID,42,VALID,0.561942,
2005-12-28, 03:04:00,VALID,917.498,VALID,0,VALID,100,VALID,0.152827,VALID,18.8405,VALID,43,VALID,0.51726,
2005-12-28, 03:05:00,VALID,917.492,VALID,0,VALID,100,VALID,0.0509425,VALID,18.8483,VALID,43,VALID,0.483041,
2005-12-28, 03:06:00,VALID,917.476,VALID,0,VALID,100,VALID,0.0679233,VALID,18.8486,VALID,43,VALID,0.345796,
2005-12-28, 03:07:00,VALID,917.473,VALID,0,VALID,100,VALID,0.0339617,VALID,18.8282,VALID,43,VALID,0.0141715,
2005-12-28, 03:08:00,VALID,917.461,VALID,0,VALID,100,VALID,0.0679233,VALID,18.8483,VALID,42,VALID,0,
2005-12-28, 03:09:00,VALID,917.434,VALID,0,VALID,100,VALID,0.0509425,VALID,18.8354,VALID,40,VALID,0.229288,
2005-12-28, 03:10:00,VALID,917.418,VALID,0,VALID,100,VALID,0.0679233,VALID,18.8225,VALID,39,VALID,0.367365,
2005-12-28, 03:11:00,VALID,917.385,VALID,0,VALID,100,VALID,0.0679233,VALID,18.8193,VALID,39,VALID,0.340588,
2005-12-28, 03:12:00,VALID,917.349,VALID,0,VALID,100,VALID,0.0339617,VALID,18.8227,VALID,39,VALID,0.444141,
2005-12-28, 03:13:00,VALID,917.312,VALID,0,VALID,100,VALID,0.0679233,VALID,18.8322,VALID,39,VALID,0.567224,
2005-12-28, 03:14:00,VALID,917.292,VALID,0,VALID,100,VALID,0.0509425,VALID,18.8384,VALID,39,VALID,0.230655,
2005-12-28, 03:15:00,VALID,917.29,VALID,0,VALID,100,VALID,0.0509425,VALID,18.8419,VALID,39,VALID,0.0962271,
2005-12-28, 03:16:00,VALID,917.29,VALID,0,VALID,100,VALID,0.0679233,VALID,18.8615,VALID,39,VALID,0.0809659,
2005-12-28, 03:17:00,VALID,917.29,VALID,0,VALID,100,VALID,0.0339617,VALID,18.8647,VALID,39,VALID,0,
2005-12-28, 03:18:00,VALID,917.304,VALID,0,VALID,100,VALID,0.0339617,VALID,18.864,VALID,39,VALID,0,
2005-12-28, 03:19:00,VALID,917.297,VALID,0,VALID,100,VALID,0.0509425,VALID,18.8735,VALID,39,VALID,0,
2005-12-28, 03:20:00,VALID,917.286,VALID,0,VALID,100,VALID,0.118866,VALID,18.8695,VALID,39,VALID,0.0891768,
2005-12-28, 03:21:00,VALID,917.29,VALID,0,VALID,100,VALID,0.118866,VALID,18.8626,VALID,25,VALID,0.203683,
2005-12-28, 03:22:00,VALID,917.279,VALID,0,VALID,100,VALID,0.152827,VALID,18.8569,VALID,351,VALID,0.0392361,
2005-12-28, 03:23:00,VALID,917.27,VALID,0,VALID,100,VALID,0.152827,VALID,18.8601,VALID,351,VALID,0,
2005-12-28, 03:24:00,VALID,917.271,VALID,0,VALID,100,VALID,0.152827,VALID,18.8628,VALID,351,VALID,0,
2005-12-28, 03:25:00,VALID,917.264,VALID,0,VALID,100,VALID,0.118866,VALID,18.8725,VALID,351,VALID,0.0896577,
2005-12-28, 03:26:00,VALID,917.251,VALID,0,VALID,100,VALID,0.152827,VALID,18.9051,VALID,351,VALID,0.20206,
2005-12-28, 03:27:00,VALID,917.243,VALID,0,VALID,100,VALID,0.101885,VALID,18.8889,VALID,351,VALID,0.466518,
2005-12-28, 03:28:00,VALID,917.225,VALID,0,VALID,100,VALID,0.135847,VALID,18.8859,VALID,60,VALID,0.797585,
2005-12-28, 03:29:00,VALID,917.219,VALID,0,VALID,100,VALID,0.135847,VALID,18.8762,VALID,165,VALID,0.875381,
2005-12-28, 03:30:00,VALID,917.222,VALID,0,VALID,100,VALID,0.135847,VALID,18.8631,VALID,167,VALID,0.818309,
2005-12-28, 03:31:00,VALID,917.23,VALID,0,VALID,100,VALID,0.169808,VALID,18.8628,VALID,195,VALID,0.518466,
2005-12-28, 03:32:00,VALID,917.237,VALID,0,VALID,100,VALID,0.169808,VALID,18.8728,VALID,190,VALID,0.570499,
2005-12-28, 03:33:00,VALID,917.245,VALID,0,VALID,100,VALID,0.152827,VALID,18.8733,VALID,214,VALID,0.453125,
2005-12-28, 03:34:00,VALID,917.237,VALID,0,VALID,100,VALID,0.169808,VALID,18.8467,VALID,206,VALID,0.341372,
2005-12-28, 03:35:00,VALID,917.248,VALID,0,VALID,100,VALID,0.0339617,VALID,18.8548,VALID,188,VALID,0.616678,
2005-12-28, 03:36:00,VALID,917.252,VALID,0,VALID,100,VALID,0.0509425,VALID,18.8516,VALID,195,VALID,0.487351,
2005-12-28, 03:37:00,VALID,917.262,VALID,0,VALID,100,VALID,0.0679233,VALID,18.8454,VALID,217,VALID,0.426781,
2005-12-28, 03:38:00,VALID,917.263,VALID,0,VALID,100,VALID,0.0509425,VALID,18.8262,VALID,219,VALID,0.499809,
2005-12-28, 03:39:00,VALID,917.261,VALID,0,VALID,100,VALID,0.0679233,VALID,18.8063,VALID,219,VALID,0.371838,
2005-12-28, 03:40:00,VALID,917.25,VALID,0,VALID,100,VALID,0.0509425,VALID,18.8029,VALID,200,VALID,0.725781,
2005-12-28, 03:41:00,VALID,917.25,VALID,0,VALID,100,VALID,0.0339617,VALID,18.8096,VALID,199,VALID,0.741461,